Probability
0 0 0 0 1 1 1 0 0 0 1 2 4 6 6 5 4 4 7 16 29 33 30 33 36 33 29 26 22 18 16 14 14 11 8 5 4 5 7 8 9 10 11 9 5 4 4 5 6
0 0 0 0 0 0 0 0 0 1 2 3 4 6 7 5 5 7 10 19 29 33 30 33 37 35 31 29 25 21 16 15 14 12 10 8 6 5 5 5 7 9 10 9 6 4 3 5 6
0 0 0 0 0 0 0 0 0 2 3 4 5 7 8 6 6 10 13 20 28 31 32 36 40 39 35 33 29 23 18 15 13 12 12 11 9 7 5 4 5 7 8 8 6 4 4 5 6
0 0 0 0 0 0 0 0 0 2 3 3 5 7 9 9 8 9 11 17 24 28 32 37 42 42 39 35 30 24 18 16 13 11 11 11 11 9 7 5 4 4 5 6 6 5 5 5 6
0 0 0 0 0 0 0 0 1 2 3 2 3 6 9 9 9 9 10 13 19 26 30 34 41 42 38 33 27 21 17 16 14 12 10 10 9 8 8 6 5 5 5 6 6 6 6 6 6
0 0 0 0 0 0 0 0 1 2 3 3 3 5 7 9 10 12 13 14 19 25 27 30 35 36 32 28 24 20 18 18 17 15 12 9 8 7 8 8 7 7 7 6 6 6 6 6 6
0 0 0 0 0 0 0 0 1 2 3 3 4 6 7 9 11 13 15 18 23 26 26 24 25 25 24 23 23 23 25 25 23 18 14 10 8 8 8 8 9 8 7 5 4 4 5 6 6
0 0 0 0 0 0 0 1 2 4 4 4 5 7 8 9 10 13 17 21 25 27 24 19 18 19 19 22 25 27 29 30 28 22 17 13 10 9 9 10 11 10 8 4 2 2 3 5 6
0 0 0 0 0 0 0 1 4 6 6 5 5 6 8 9 10 14 20 23 26 27 23 19 19 20 20 23 27 29 30 31 29 25 21 17 14 11 10 12 15 14 10 6 3 1 2 3 4
0 0 0 0 0 0 1 2 5 6 6 5 5 6 8 10 13 17 21 24 26 26 23 22 23 24 23 25 29 31 29 28 28 26 24 22 18 14 11 15 19 18 14 10 7 5 4 3 3
0 0 0 0 0 1 2 3 5 5 4 5 6 7 9 13 17 19 21 23 24 24 23 22 23 26 26 27 30 31 28 27 27 27 26 23 21 18 17 22 24 22 19 15 12 9 7 5 4
0 0 0 0 0 1 3 4 4 4 4 6 9 10 12 16 19 20 21 22 22 23 23 22 24 27 29 30 32 31 28 27 28 29 26 23 23 22 24 28 28 26 23 20 16 13 10 9 8
0 0 0 0 0 1 2 3 3 3 4 7 10 12 14 17 19 21 21 20 21 23 25 25 27 31 31 32 33 31 29 28 28 28 26 24 24 24 27 30 29 27 24 21 19 17 15 15 13
0 0 0 1 1 1 2 4 4 3 4 6 9 11 13 15 17 18 19 20 21 23 27 29 30 32 33 32 30 28 29 29 27 26 25 23 23 25 27 29 29 27 25 23 20 20 19 17 17
0 0 0 1 2 2 2 4 4 3 3 4 6 9 12 15 16 15 16 20 22 24 28 29 29 32 34 31 26 24 25 27 25 24 24 24 24 25 26 27 28 28 26 24 22 20 18 17 17
0 0 0 1 1 1 1 2 3 3 4 4 5 8 13 16 15 13 13 17 21 24 27 28 29 30 31 29 25 22 22 23 23 22 24 26 26 26 27 26 25 25 25 22 20 19 17 15 15
0 0 0 0 1 1 1 1 2 3 5 4 4 8 13 15 14 12 12 14 19 23 26 27 29 28 26 26 27 25 22 24 25 25 26 27 27 28 30 28 25 23 20 17 16 17 17 14 13
0 0 0 0 1 2 2 1 2 3 4 4 5 8 11 12 11 10 12 14 17 21 25 27 29 28 26 27 28 26 24 26 28 28 28 27 27 29 30 28 25 20 16 14 14 16 16 14 12
0 0 0 0 1 2 2 1 1 3 4 5 8 10 10 10 9 10 11 13 14 17 21 24 25 27 28 29 28 27 25 25 25 24 25 26 25 26 26 24 21 18 14 14 15 15 14 12 11
0 0 0 0 0 1 2 2 2 3 4 7 10 11 9 7 8 10 11 10 10 12 15 18 21 24 28 29 28 27 24 22 20 20 21 23 23 22 21 20 17 15 14 14 16 16 13 11 10
0 0 0 0 0 0 2 4 4 5 6 8 9 11 9 6 7 10 9 8 8 9 11 15 20 25 27 27 27 25 22 19 18 19 21 23 22 20 19 17 14 13 14 14 16 16 14 10 9
0 0 0 0 0 0 1 3 5 6 7 7 8 9 8 6 6 7 7 7 9 10 13 18 24 27 28 27 25 22 20 18 17 18 20 22 23 21 18 15 13 13 13 13 14 14 12 10 8
0 0 0 0 0 0 1 2 5 6 7 7 7 8 8 7 6 5 6 8 10 13 16 21 25 27 27 25 23 20 19 18 19 19 19 20 20 19 16 13 13 14 12 11 12 13 13 9 7
0 0 0 0 0 0 0 2 4 6 8 9 9 9 10 9 8 8 9 10 12 15 18 20 22 24 24 23 21 20 19 20 22 22 19 17 17 16 13 11 13 13 12 12 13 14 14 10 7
0 0 0 0 0 0 0 1 3 6 9 11 11 11 11 10 11 12 12 13 15 17 17 18 18 19 20 20 20 20 21 21 22 21 18 14 14 14 12 11 12 11 11 11 12 13 12 8 5
0 0 0 0 0 0 0 2 4 6 7 9 10 10 9 10 13 14 14 15 17 17 17 17 16 16 16 17 18 20 20 20 19 19 16 13 12 12 10 10 10 9 8 8 8 9 7 5 4
0 0 0 0 0 0 1 4 6 5 5 7 8 8 7 10 13 15 14 14 15 16 16 15 15 13 12 12 14 15 15 15 17 17 15 14 12 10 8 7 6 6 6 5 5 5 4 3 3
0 0 0 0 0 0 2 5 7 5 5 8 9 8 8 10 13 14 13 12 14 14 13 13 12 11 10 9 9 10 9 11 13 14 14 13 10 9 7 5 5 5 6 6 5 4 4 4 4
0 0 0 0 0 0 1 4 7 6 7 9 10 9 8 10 11 12 11 11 12 11 9 10 10 9 8 7 7 7 7 8 10 11 11 11 9 8 7 7 6 6 6 6 6 6 6 6 6
0 0 0 0 0 0 1 5 7 7 7 8 9 9 9 9 9 9 9 10 11 8 6 8 9 8 7 7 7 8 7 8 9 10 10 9 9 9 9 9 8 7 6 6 6 6 6 6 6
Wind_Speed
8 10 9 7 6 6 4 2 6 7 7 9 9 8 10 11 10 8 7 9 11 12 13 13 12 11 10 9 8 7 7 7 8 7 7 7 7 7 7 7 7 6 6 6 6 6 6 5 5
9 12 9 7 7 5 1 3 6 7 7 6 7 9 10 11 10 8 8 8 11 12 12 11 12 10 9 8 7 6 7 7 7 7 7 7 7 6 6 6 6 6 6 6 6 5 6 5 5
12 14 8 7 7 4 1 5 5 7 6 5 5 8 8 8 9 7 7 9 11 11 11 12 12 10 9 8 7 7 6 7 7 7 7 6 6 6 6 6 6 6 5 5 5 5 5 5 5
9 8 7 7 6 1 2 4 5 4 5 5 5 7 10 8 7 7 7 9 10 11 12 12 12 11 10 9 8 7 7 6 6 6 6 6 6 6 6 6 6 5 5 5 5 4 5 5 5
10 7 9 8 5 2 3 4 3 4 5 5 6 9 9 9 8 7 7 8 8 9 11 12 12 11 10 10 8 7 6 6 5 5 6 5 5 5 5 6 5 5 4 4 5 4 5 5 6
7 7 9 6 2 3 4 4 4 6 4 6 5 7 7 7 7 5 6 6 8 10 10 11 12 11 10 10 9 8 7 6 5 5 5 5 5 5 5 5 5 5 5 4 5 5 5 5 6
9 9 10 7 3 2 3 3 5 5 5 7 6 6 6 6 5 5 6 5 7 9 9 9 9 9 10 9 9 8 7 7 6 5 5 5 5 5 6 6 6 6 5 5 6 6 6 6 7
9 9 11 6 3 2 3 3 5 6 7 5 5 5 4 5 4 5 5 5 7 6 5 6 7 7 8 7 8 9 8 7 7 6 6 5 6 7 7 7 6 6 6 6 6 6 7 7 8
11 8 8 5 4 3 3 4 6 5 6 7 9 8 5 5 4 5 5 5 5 5 4 5 5 6 5 6 7 8 8 7 6 6 6 6 5 5 6 6 7 8 7 7 7 8 8 8 9
7 7 6 4 4 4 4 5 4 3 5 6 6 7 5 4 5 5 4 4 4 4 4 3 4 4 4 4 5 5 5 5 5 4 5 4 3 3 4 6 8 9 9 8 9 9 9 9 6
8 6 5 5 4 6 5 5 6 4 4 4 4 5 4 4 5 4 4 4 4 3 3 2 3 2 2 2 3 2 3 3 4 5 4 3 3 2 2 2 4 5 7 6 6 7 6 6 5
7 6 6 4 3 2 3 3 5 5 4 5 6 5 4 3 4 4 3 3 3 4 4 3 3 2 3 2 1 2 1 2 2 3 3 2 2 1 1 1 2 3 3 3 3 3 4 4 5
8 8 7 2 1 1 1 1 3 5 5 6 7 7 5 3 4 5 4 3 3 4 3 4 4 3 2 2 0 2 1 1 1 2 2 1 1 1 1 0 1 1 1 2 2 3 3 3 4
8 7 6 4 4 3 2 1 1 4 4 4 5 5 4 4 4 4 5 3 2 2 3 3 3 3 2 2 0 0 0 1 1 1 2 2 1 0 0 1 1 1 1 1 2 2 2 3 3
9 9 9 8 7 5 3 2 2 4 6 4 4 4 5 4 3 3 4 3 3 2 2 2 2 2 2 1 1 1 1 1 1 1 2 2 1 1 1 1 1 1 1 2 2 2 2 3 3
11 12 11 9 7 5 4 3 2 4 5 4 3 4 4 4 3 3 4 4 3 2 2 1 0 2 2 1 0 1 1 0 0 1 1 1 2 2 2 1 1 1 1 1 1 1 1 2 2
11 11 10 6 7 5 5 3 3 3 4 4 4 4 4 3 3 4 4 3 2 2 2 1 0 1 2 2 1 1 1 1 1 1 1 1 2 2 2 2 1 2 2 1 2 1 1 2 2
8 9 8 6 5 6 5 4 4 5 5 5 3 3 4 3 3 3 3 3 3 2 2 1 0 0 0 1 1 1 1 2 1 1 1 2 2 2 2 2 2 2 2 1 1 1 1 2 2
10 10 10 6 5 5 6 4 6 7 6 5 4 4 4 3 3 4 3 3 3 2 2 1 1 1 0 1 1 1 2 1 1 1 1 1 2 2 2 2 2 2 2 3 2 2 2 2 2
11 11 9 5 3 4 5 4 5 6 6 7 6 4 4 4 3 3 2 2 2 2 1 1 1 1 1 0 1 2 2 2 2 1 1 2 3 3 3 3 3 2 2 3 2 2 2 2 1
12 10 6 5 8 8 7 6 6 5 5 6 5 4 4 4 3 3 1 1 2 2 1 1 2 1 1 0 1 2 1 1 1 1 1 2 3 3 2 2 2 2 2 2 3 3 3 3 3
10 8 7 8 9 7 7 5 5 7 7 6 5 4 3 3 3 2 1 1 2 1 1 2 2 1 1 0 1 2 2 2 2 2 1 2 2 2 2 3 3 2 2 3 3 2 2 3 3
9 9 9 11 11 10 8 6 5 8 6 6 4 3 2 2 2 2 1 2 1 1 2 2 2 1 1 0 1 2 3 2 2 2 1 2 2 2 2 2 2 2 2 2 2 2 2 2 2
8 9 10 11 9 10 9 6 3 5 6 6 5 3 3 2 2 2 2 2 2 2 2 3 2 2 1 1 1 2 3 3 3 2 2 2 1 1 2 1 1 2 2 2 2 2 2 2 2
8 7 6 6 6 5 4 3 3 6 6 6 4 4 4 3 2 2 2 3 3 2 2 2 2 1 1 0 1 1 2 3 2 2 2 2 1 1 1 1 1 1 2 2 2 2 2 3 3
7 7 5 6 6 5 6 2 5 8 8 6 5 4 4 3 2 3 3 3 2 3 3 2 1 1 0 0 1 1 2 2 1 2 2 2 1 1 1 1 1 1 2 2 2 2 3 2 3
7 6 6 8 10 8 3 5 5 6 6 5 5 4 4 2 2 3 3 3 3 3 3 2 2 1 0 0 1 1 1 2 2 2 2 2 1 1 1 1 1 1 1 2 2 2 2 2 3
6 5 4 5 7 6 2 3 5 6 5 5 3 2 3 3 3 3 3 3 3 2 2 2 1 1 0 1 1 1 1 1 1 2 2 2 2 2 1 1 1 2 2 2 2 2 2 2 2
5 5 5 6 6 6 4 2 5 5 5 5 3 3 3 4 3 3 2 3 3 2 2 2 2 1 1 1 1 2 1 1 1 1 1 1 1 1 1 1 1 1 1 2 2 3 3 3 3
5 5 5 5 6 6 5 1 6 6 5 5 4 4 4 4 4 3 3 3 3 2 2 2 2 2 1 1 1 1 1 1 1 1 1 1 1 1 1 1 1 1 1 2 2 3 3 3 3
Wind_Direction
241 244 237 247 245 244 268 337 35 54 55 48 35 45 49 43 43 77 89 78 95 107 117 121 119 120 121 120 119 119 121 122 127 129 131 130 128 126 126 129 131 132 134 136 142 146 147 146 139
256 251 240 245 253 257 271 32 34 50 49 50 49 52 55 59 64 82 83 85 97 107 118 120 124 124 123 122 121 122 127 128 129 135 138 140 140 141 142 144 144 144 145 146 150 158 160 162 158
261 260 259 247 253 269 14 70 56 61 53 47 59 58 55 54 64 77 90 98 99 107 116 120 127 125 125 125 123 125 130 131 134 141 143 144 146 149 154 158 157 157 157 160 163 168 173 176 174
254 236 234 251 267 265 35 46 54 57 53 39 55 72 71 60 68 88 103 107 109 119 120 128 135 133 131 129 128 130 135 137 140 143 146 149 151 157 163 169 170 171 174 173 177 182 188 189 191
240 254 244 255 265 17 45 30 15 53 54 44 67 81 77 78 84 95 104 109 118 118 118 136 139 137 136 135 135 138 139 141 146 149 150 156 163 166 169 173 178 179 182 188 190 196 203 205 206
252 253 260 271 287 46 48 32 16 46 52 46 62 86 81 87 91 103 106 111 115 114 121 133 140 140 143 146 146 146 146 145 148 151 155 162 170 176 181 182 181 179 188 204 212 212 213 216 218
259 275 278 286 311 63 67 34 34 35 44 38 33 80 88 83 83 97 96 94 96 108 122 135 144 146 150 154 154 157 154 155 161 157 162 171 177 182 189 191 189 186 188 203 215 223 222 222 224
263 286 290 289 299 58 65 65 64 46 51 43 30 58 90 100 100 97 95 90 90 94 112 134 142 149 154 158 164 163 162 161 167 169 175 181 188 192 200 196 195 195 197 205 214 222 226 227 230
262 271 285 322 351 40 48 61 67 71 63 52 50 57 95 113 112 105 98 86 84 90 112 123 140 148 157 158 160 167 169 167 167 175 184 187 200 196 202 202 194 205 209 214 220 225 227 227 231
247 266 297 342 351 15 39 44 59 82 78 63 63 73 93 118 115 114 110 98 93 92 103 116 124 143 158 156 143 166 172 171 181 176 179 199 215 211 204 175 192 208 213 218 223 227 229 230 224
259 274 302 313 8 21 20 46 46 35 48 52 83 94 111 113 114 114 110 111 108 104 94 95 103 113 129 117 146 169 172 166 185 174 177 205 219 210 190 172 183 205 211 215 217 223 228 224 215
257 263 269 299 26 24 28 47 68 47 43 76 91 109 104 109 107 91 82 73 86 84 70 59 74 78 72 76 121 143 155 162 177 168 186 202 214 227 202 189 195 202 208 207 211 221 228 234 222
257 255 255 260 347 34 54 85 77 86 79 90 104 104 110 116 97 95 91 79 65 85 82 70 77 74 80 76 79 123 146 168 172 161 177 196 213 230 236 232 231 243 237 225 232 233 237 244 244
267 263 261 232 201 204 192 124 147 112 109 104 105 110 112 89 90 97 95 95 79 78 88 86 94 103 103 101 85 138 151 155 181 172 175 196 222 273 258 239 245 254 263 262 258 264 256 248 249
260 254 250 232 214 211 205 239 191 141 136 132 119 113 109 97 86 89 99 90 71 64 70 98 138 128 126 125 221 152 213 199 190 178 168 184 201 217 244 239 247 266 271 263 253 264 258 258 249
254 247 241 220 210 211 219 253 191 159 151 148 142 137 123 113 114 93 81 73 64 69 80 68 21 121 131 141 196 297 306 334 195 178 169 196 206 213 243 242 256 272 265 257 255 254 272 273 268
248 249 252 222 197 219 221 245 167 164 157 155 156 150 133 123 98 86 81 81 73 80 97 113 337 159 166 166 191 246 251 268 254 193 179 205 220 223 240 244 254 266 276 279 273 252 259 275 277
287 281 277 266 211 224 220 205 177 177 171 174 177 160 140 127 114 99 85 80 80 80 96 140 177 153 173 187 192 229 241 242 250 227 199 210 225 238 242 241 244 257 258 266 274 270 260 254 260
284 284 279 259 214 223 227 207 189 179 177 171 174 175 143 120 125 107 97 79 64 64 75 90 105 116 168 230 234 248 248 250 250 230 210 220 247 246 236 265 244 244 246 245 246 253 253 250 248
269 270 271 288 282 255 251 231 213 186 177 168 169 169 151 145 145 115 107 98 84 74 90 124 123 132 177 235 272 259 249 247 242 249 216 226 237 247 235 238 244 234 248 252 246 249 261 268 244
265 271 273 282 271 249 241 244 212 194 170 154 154 171 175 160 146 134 127 93 98 87 84 88 105 102 137 229 265 278 275 273 270 253 234 241 239 240 248 241 252 249 243 241 237 237 234 248 258
273 277 271 265 262 265 251 269 182 169 176 160 162 177 171 146 130 135 137 110 80 83 91 97 97 95 117 212 278 284 288 286 277 257 245 258 248 243 235 244 244 252 257 250 247 239 244 239 256
274 281 268 264 263 266 251 252 194 171 169 161 161 177 123 113 105 127 120 102 90 89 87 91 84 71 65 27 311 299 304 295 292 283 258 263 263 258 254 245 240 244 248 247 251 258 260 251 255
269 276 267 260 259 260 256 251 188 168 164 146 140 130 102 80 76 82 85 83 65 53 65 73 73 55 40 2 331 307 311 312 314 313 300 291 285 273 272 284 301 280 270 255 252 239 243 244 252
254 272 283 276 247 258 266 256 137 124 115 112 111 102 96 79 62 77 58 56 47 40 52 54 61 49 33 353 325 314 301 299 311 321 321 312 302 301 335 340 308 292 278 268 263 256 252 245 246
261 260 270 282 288 290 262 199 123 109 102 100 101 95 94 94 85 82 69 64 56 42 38 37 54 32 14 337 313 298 289 302 340 339 328 325 329 352 1 320 321 295 278 275 266 256 253 244 245
268 275 285 282 279 277 239 129 126 116 107 97 93 93 92 94 89 82 81 67 50 43 43 28 34 38 296 260 232 266 343 356 356 339 346 357 351 355 8 315 316 303 298 289 280 267 262 256 248
260 285 299 285 291 291 268 179 153 145 130 108 88 93 92 94 87 85 81 74 64 51 50 47 44 62 66 333 296 8 24 5 6 353 6 11 6 2 339 316 314 298 292 284 271 271 264 256 255
253 253 269 280 289 300 307 27 99 105 105 105 99 91 81 74 79 89 89 92 81 68 59 51 44 45 41 4 20 36 25 13 17 19 9 8 12 355 336 312 300 289 292 300 298 281 264 255 255
259 265 267 276 293 294 301 76 97 96 97 94 87 83 83 76 70 70 76 73 67 51 39 45 31 31 15 14 47 50 28 13 5 6 16 28 17 341 340 325 298 291 308 289 282 285 282 264 255